Tracking 19720 objects as of 26-Jun-2019
HD Live streaming from Space Station
objects crossing your sky now

UNITE

Track UNITE now!
10-day predictions


NORAD ID: 44031
Int'l Code: 1998-067PX
Perigee: 404.8 km
Apogee: 409.6 km
Inclination: 51.6 °
Period: 92.6 minutes
Semi major axis: 6778 km
RCS: Unknown
Launch date: November 20, 1998
Source: United States (US)
Launch site: TYURATAM MISSILE AND SPACE COMPLEX (TTMTR)
aabbcc
Your satellite tracking list
Your tracking list is empty




NASA's NSSDC Master Catalog

Two Line Element Set (TLE):
1 44031U 98067PX  19176.32244212  .00004349  00000-0  68904-4 0  9997
2 44031  51.6395 318.3471 0003522 161.1923 198.9199 15.55717557 22575
Source of the keplerian elements: AFSPC